Date,TemperatureHighF,TemperatureAvgF,TemperatureLowF,DewpointHighF,DewpointAvgF,DewpointLowF,HumidityHigh,HumidityAvg,HumidityLow,PressureMaxIn,PressureMinIn,WindSpeedMaxMPH,WindSpeedAvgMPH,GustSpeedMaxMPH,PrecipitationSumIn
2013-1-7,34.7,31.8,21.2,26.3,23.4,14.2,75,71,67,29.97,29.71,24,6,24,0.00
2013-1-8,38.1,34.3,31.4,29.9,26.1,23.2,79,72,62,29.87,29.69,21,3,23,0.00
2013-1-9,45.2,40.3,35.0,34.1,29.6,24.8,80,66,52,29.92,29.51,25,6,27,0.00
2013-1-10,42.9,38.9,36.3,29.9,26.6,23.4,72,61,52,30.17,29.92,20,3,21,0.00
2013-1-11,44.7,41.2,38.4,40.8,34.8,29.4,86,78,68,29.97,29.45,12,3,17,0.17
2013-1-12,54.9,47.9,43.5,46.7,42.7,39.3,86,82,73,29.56,29.47,11,1,13,0.01
2013-1-13,58.5,50.4,42.3,51.1,45.1,37.8,87,82,72,29.52,29.31,18,2,18,0.12
2013-1-14,42.7,32.8,28.2,37.8,22.6,16.8,84,66,58,29.97,29.39,20,5,22,0.06
2013-1-15,33.5,29.7,26.1,18.9,16.3,14.4,70,58,48,29.99,29.76,11,2,11,0.06
2013-1-16,39.2,33.2,29.3,26.1,20.5,15.9,65,59,52,29.76,29.34,16,3,18,0.09
2013-1-17,35.5,22.0,13.8,25.5,10.7,3.9,74,62,52,29.81,29.40,24,4,24,0.04
2013-1-18,33.8,22.0,13.5,22.5,11.0,4.9,79,63,50,30.00,29.56,22,5,25,0.00
2013-1-19,46.2,40.6,33.8,34.5,28.8,22.5,71,62,57,29.56,29.08,24,5,31,0.58
2013-1-20,46.5,27.9,18.3,33.3,16.3,5.2,80,62,48,29.67,28.99,40,10,40,0.04
2013-1-21,22.2,18.2,12.6,8.9,5.1,-1.1,65,56,49,29.65,29.44,23,4,26,0.00
2013-1-22,12.0,8.4,5.5,2.6,-0.4,-3.5,76,67,57,29.78,29.47,22,4,23,0.00
2013-1-23,15.3,7.8,-1.0,4.6,-2.5,-10.9,70,62,55,29.82,29.68,10,2,13,0.00
2013-1-24,14.3,10.3,5.6,3.7,-1.1,-4.8,68,59,53,30.12,29.67,17,4,19,0.00
2013-1-25,18.9,14.5,7.9,12.6,6.8,-1.7,77,71,62,30.09,29.67,7,1,10,0.00
2013-1-26,26.9,21.2,15.1,14.9,12.0,7.7,75,67,58,29.99,29.67,10,1,12,0.07
2013-1-27,30.1,23.7,15.8,19.8,14.6,8.7,75,68,60,30.13,29.90,10,2,12,0.00
2013-1-28,38.5,34.1,29.1,34.7,29.0,19.2,86,82,63,29.90,29.41,13,2,14,0.22
2013-1-29,46.4,38.1,34.4,42.8,34.1,30.3,87,85,82,29.61,29.23,18,2,20,0.09
2013-1-30,55.1,50.0,46.1,49.8,44.9,41.8,87,83,74,29.23,28.58,16,2,16,0.08
2013-1-31,46.8,29.3,21.5,41.8,19.1,9.4,85,66,51,29.29,28.59,32,9,33,0.02
2013-2-1,32.0,18.6,15.2,11.7,6.9,3.5,67,60,50,29.75,29.29,20,6,24,0.00
2013-2-2,23.2,18.9,14.9,13.4,8.6,3.5,69,63,58,29.74,29.53,20,4,20,0.00
2013-2-3,24.4,19.3,14.5,12.9,8.6,5.0,74,63,51,29.57,29.38,16,2,16,0.00
2013-2-4,23.2,19.0,13.2,11.4,7.5,1.7,69,60,49,29.54,29.43,17,4,18,0.00
2013-2-5,26.1,20.6,12.9,17.3,9.8,2.0,70,62,55,29.54,29.42,13,2,17,0.00
2013-2-6,27.5,23.7,19.3,20.7,10.7,3.5,78,58,40,29.94,29.43,17,4,19,0.00
2013-2-7,29.1,24.6,21.0,20.6,17.2,10.1,83,73,62,29.95,29.67,19,5,21,0.00
2013-2-8,23.3,19.0,15.6,18.9,14.3,10.8,84,82,80,29.77,29.46,20,5,20,0.00
2013-2-9,26.7,19.1,11.0,16.5,11.3,5.2,80,72,59,29.99,29.76,13,2,14,0.00
2013-2-10,36.3,28.0,16.9,29.5,19.4,11.4,81,70,51,29.96,29.49,18,3,19,0.04
2013-2-11,45.4,37.6,34.4,38.0,30.3,25.9,85,75,57,29.50,29.11,24,4,27,0.91
2013-2-12,36.2,33.7,31.5,27.8,23.7,20.0,76,67,56,29.53,29.25,22,6,22,0.02
2013-2-13,35.6,31.3,27.1,32.0,20.1,17.4,69,63,54,29.47,29.33,11,2,11,0.05
2013-2-14,36.4,32.2,26.6,31.9,25.8,17.9,85,77,69,29.45,29.29,14,3,18,0.29
2013-2-15,36.8,30.3,22.1,31.5,20.0,11.9,83,65,48,29.66,29.28,25,6,25,0.02
2013-2-16,28.5,23.1,19.5,20.0,15.3,11.0,80,72,57,29.66,29.54,11,2,11,0.00
2013-2-17,19.6,12.3,6.4,10.6,1.7,-2.7,70,62,53,29.81,29.55,18,5,21,0.00
2013-2-18,34.2,21.3,8.3,24.8,11.2,0.1,76,65,56,29.84,29.42,16,3,18,0.01
2013-2-19,39.6,33.8,24.4,34.4,26.4,15.9,84,74,65,29.43,29.09,24,5,24,0.34
2013-2-20,24.3,21.8,19.7,17.4,11.2,9.1,76,63,55,29.66,29.31,24,8,24,0.00
2013-2-21,25.7,17.8,9.1,14.5,7.9,-0.0,72,65,58,30.00,29.66,22,6,22,0.00
2013-2-22,35.0,28.2,17.7,30.4,21.9,9.3,84,77,69,29.97,29.53,25,5,27,0.00
2013-2-23,36.9,35.2,31.5,31.5,27.7,22.0,84,74,58,29.53,29.42,14,3,19,0.11
2013-2-24,36.1,32.2,28.7,27.1,24.2,22.7,83,72,65,29.67,29.42,17,4,17,0.04
2013-2-25,36.9,34.6,32.4,26.4,25.0,23.0,73,68,61,29.81,29.67,9,2,9,0.00
2013-2-26,39.4,36.4,32.7,30.8,27.3,23.4,85,70,63,29.79,29.35,27,6,27,0.06
2013-2-27,35.3,33.9,32.7,31.2,30.0,28.9,86,85,85,29.35,29.15,23,5,24,0.30
2013-2-28,38.8,34.4,31.7,31.0,29.0,24.6,92,80,68,29.37,29.11,15,3,17,0.15
2013-3-1,32.0,27.1,22.0,24.6,18.0,12.8,75,68,61,29.58,29.37,19,5,20,0.12
2013-3-2,28.2,22.6,17.5,17.5,13.0,8.7,72,66,61,29.58,29.51,16,6,17,0.00
2013-3-3,25.1,22.1,18.5,17.9,13.1,8.8,77,68,61,29.53,29.47,17,6,18,0.00
2013-3-4,31.1,25.0,19.7,19.1,14.8,11.5,76,65,56,29.67,29.52,16,6,20,0.00
2013-3-5,32.5,27.3,20.7,24.5,17.9,13.3,74,68,55,29.70,29.56,19,3,19,0.00
2013-3-6,41.9,36.2,29.6,30.5,26.3,22.0,76,68,56,29.75,29.55,14,3,17,0.14
2013-3-7,41.9,36.7,34.2,31.0,29.0,26.9,82,74,59,29.89,29.75,9,2,10,0.12
2013-3-8,43.9,37.7,33.9,29.5,27.9,25.0,81,68,51,29.99,29.88,12,4,13,0.01
2013-3-9,43.6,37.1,29.0,30.5,27.4,23.9,82,68,51,29.99,29.75,14,2,15,0.00
2013-3-10,55.5,46.6,38.6,35.9,31.8,28.0,72,57,45,29.76,29.51,11,2,14,0.00
2013-3-11,53.3,48.7,43.7,41.1,35.8,32.5,82,62,47,29.52,29.18,12,1,12,0.22
2013-3-12,43.8,38.5,34.1,38.7,31.3,27.7,83,75,66,29.46,29.22,19,4,19,0.03
2013-3-13,35.4,31.1,21.5,28.5,21.3,7.8,80,67,47,29.59,29.40,24,5,25,0.03
2013-3-14,21.6,20.4,19.3,11.8,10.8,9.7,70,66,62,29.62,29.58,17,6,25,0.00
2013-3-26,49.9,42.0,36.7,26.9,25.6,22.7,63,53,36,29.54,29.34,8,5,20,0.00
2013-3-27,44.7,38.7,34.8,30.5,27.2,23.5,77,63,50,29.66,29.51,9,6,21,0.01
2013-3-28,44.6,40.0,35.0,29.9,28.1,26.0,75,63,48,29.79,29.64,7,4,13,0.00
2013-3-29,53.1,43.9,38.0,29.8,26.8,20.8,66,52,35,29.79,29.70,8,4,16,0.00
2013-3-30,50.4,41.9,33.8,29.1,25.7,21.3,67,53,36,29.79,29.59,5,2,13,0.00
2013-3-31,50.8,43.8,39.6,37.3,30.6,26.4,79,60,46,29.58,29.17,4,1,13,0.01
2013-4-1,44.5,31.1,26.2,39.0,18.7,12.0,81,60,41,29.56,29.14,18,8,31,0.07
2013-4-2,35.9,28.9,23.9,19.5,14.8,11.1,67,56,40,29.71,29.55,29,8,30,0.00
2013-4-3,37.1,30.6,24.8,17.5,14.3,8.7,65,51,35,29.97,29.71,24,7,25,0.00
2013-4-4,46.7,37.5,28.2,25.3,19.7,13.1,65,50,29,29.94,29.47,20,3,20,0.00
2013-4-5,43.1,37.8,30.7,29.3,21.2,13.3,65,52,32,29.77,29.47,21,6,23,0.00
2013-4-6,40.1,34.1,27.4,27.0,20.6,16.5,66,57,43,29.89,29.54,16,3,20,0.00
2013-4-7,63.6,47.5,37.3,45.1,33.1,26.9,70,57,49,29.63,29.21,29,7,29,0.01
2013-4-8,47.6,42.7,40.5,37.5,32.1,28.6,85,67,55,29.68,29.36,18,4,22,0.49
2013-4-9,51.5,45.6,42.0,42.3,38.4,36.5,85,76,64,29.69,29.37,19,4,21,0.00
2013-5-29,82.7,77.7,69.5,65.4,64.2,32.0,75,64,55,29.58,29.50,18,3,18,0.11
2013-5-30,81.3,72.5,64.1,64.8,61.8,58.0,84,70,56,29.68,29.58,15,2,15,0.00
2013-5-31,82.9,73.3,66.0,65.6,62.0,58.2,81,68,53,29.62,29.50,26,2,28,0.10
2013-6-1,79.5,69.8,62.2,66.9,61.3,57.4,85,75,62,29.51,29.32,21,3,21,0.02
2013-6-2,72.3,63.8,51.4,62.6,56.1,40.7,89,76,61,29.51,29.24,22,4,22,0.55
2013-6-3,65.0,55.6,46.7,41.7,39.4,37.5,74,56,40,29.63,29.51,20,5,20,0.00
2013-6-4,68.5,59.1,48.3,43.1,37.6,30.3,65,46,29,29.77,29.63,15,4,16,0.00
2013-6-5,64.8,60.3,56.6,41.5,38.4,32.3,53,44,37,29.83,29.67,15,3,18,0.00
2013-6-6,60.2,56.2,53.0,49.9,44.9,38.8,86,67,48,29.69,29.45,22,5,24,0.36
2013-6-7,61.2,57.7,53.5,53.4,51.5,49.4,86,80,72,29.47,29.43,12,1,12,0.00
2013-6-8,66.2,61.6,58.1,54.6,51.9,47.4,79,71,56,29.66,29.44,12,2,12,0.00
2013-6-9,72.6,64.9,55.3,51.6,48.9,46.0,77,57,42,29.77,29.65,11,2,11,0.00
2013-6-10,64.1,61.0,59.0,57.1,53.0,47.6,87,76,56,29.70,29.29,15,4,20,1.01
2013-6-11,75.3,66.6,59.4,59.3,56.8,53.2,87,72,50,29.45,29.25,20,4,20,0.22
2013-6-12,72.7,66.1,59.2,56.6,52.2,46.4,82,62,45,29.53,29.34,12,2,12,0.00
2013-6-13,72.0,63.0,58.7,57.7,54.2,47.6,86,73,53,29.41,29.18,13,2,16,0.60
2013-6-14,75.3,65.5,59.0,57.2,52.7,43.2,85,65,47,29.59,29.39,17,4,17,0.01
2013-6-15,77.3,66.0,53.2,56.0,46.2,41.7,67,50,33,29.65,29.51,14,3,17,0.00
2013-6-16,80.3,69.4,60.2,64.7,58.4,49.7,87,69,52,29.52,29.29,17,3,20,0.95
2013-6-17,78.5,70.2,63.2,60.6,55.7,50.8,75,61,47,29.54,29.38,17,3,17,0.00
2013-6-18,68.8,63.2,56.0,51.7,48.3,43.3,77,59,46,29.64,29.50,13,3,15,0.00
2013-6-19,65.6,61.4,55.5,45.3,41.2,37.4,56,48,39,29.78,29.64,12,2,13,0.00
2013-6-20,73.2,64.9,54.4,49.4,46.0,42.7,69,51,38,29.84,29.77,11,1,12,0.00
2013-6-21,79.0,69.8,59.3,55.5,50.2,47.0,72,51,33,29.85,29.74,10,2,10,0.00
2013-6-22,81.0,71.5,65.7,69.0,60.3,51.2,84,68,51,29.74,29.57,9,1,11,0.46
2013-6-23,90.7,77.2,66.3,70.0,65.1,60.5,83,68,48,29.64,29.53,19,2,19,0.00
2013-6-24,91.9,79.3,71.5,69.3,65.7,63.2,76,64,44,29.60,29.47,13,2,16,0.00
2013-6-25,75.4,74.3,73.0,63.8,63.1,62.5,70,68,67,29.51,29.50,9,3,10,0.00